Lancaster, PA

11:32 AM EDT on June 28, 2017 (GMT -0400)
Lancaster

Weather History for KLNS - June, 2013

Change the Weather History Date:

Wednesday, June 26, 2013

  Actual Average Record
Temperature  
Mean Temperature 76 °F -  
Max Temperature 87 °F 83 °F 93 °F (2002)
Min Temperature 66 °F 59 °F 44 °F (1986)
Cooling Degree Days 12    
Growing Degree Days 26 (Base 50)    
Moisture  
Dew Point 67 °F    
Average Humidity 77    
Maximum Humidity 94    
Minimum Humidity 51    
Precipitation  
Precipitation 0.75 in - - ()
Sea Level Pressure  
Sea Level Pressure 29.85 in    
Wind  
Wind Speed 5 mph (WSW)    
Max Wind Speed 23 mph    
Max Gust Speed 29 mph    
Visibility 8 miles    
Events Fog , Rain    
Averages and records for this station are not official NWS values.
T = Trace of Precipitation, MM = Missing Value Source: NWS Daily Summary

Daily Weather History Graph

Daily Weather History Graph

Search for Another Location

Airport or City:

Trip Planner

Search our weather history database for the weather conditions in past years. The results will help you decide how hot, cold, wet, or windy it might be!

Date:

Astronomy

Jun. 26, 2013 Rise Set
Actual Time 5:37 AM EDT 8:38 PM EDT
Civil Twilight 5:04 AM EDT 9:11 PM EDT
Nautical Twilight 4:22 AM EDT 9:53 PM EDT
Astronomical Twilight 3:34 AM EDT 10:41 PM EDT
Moon 11:00 PM EDT (6/26) 9:26 AM EDT (6/26)
Length of Visible Light 16h 06m
Length of Day
15h 00m
Waning Gibbous, 85% of the Moon is Illuminated
Jun 26
Waning Gibbous
Jun 30
Last Quarter
Jul 8
New
Jul 15
First Quarter
Jul 22
Full

Hourly Weather History & Observations

Time (EDT) Temp. Heat Index Dew Point Humidity Pressure Visibility Wind Dir Wind Speed Gust Speed Precip Events Conditions
12:53 AM 69.1 °F - 64.9 °F 87% 29.89 in 10.0 mi WSW 4.6 mph - N/A   Clear
1:53 AM 69.1 °F - 64.9 °F 87% 29.89 in 10.0 mi WSW 4.6 mph - N/A   Clear
2:53 AM 68.0 °F - 64.9 °F 90% 29.88 in 9.0 mi West 5.8 mph - N/A   Clear
3:53 AM 66.9 °F - 64.0 °F 90% 29.88 in 8.0 mi West 5.8 mph - N/A   Scattered Clouds
4:53 AM 66.0 °F - 63.0 °F 90% 29.88 in 10.0 mi WNW 4.6 mph - N/A   Clear
5:53 AM 66.0 °F - 62.1 °F 87% 29.88 in 9.0 mi South 3.5 mph - N/A   Clear
6:53 AM 69.1 °F - 64.0 °F 84% 29.88 in 10.0 mi Calm Calm - N/A   Clear
7:53 AM 73.0 °F - 64.0 °F 73% 29.88 in 10.0 mi Calm Calm - N/A   Clear
8:53 AM 75.9 °F - 64.0 °F 67% 29.88 in 10.0 mi WSW 3.5 mph - N/A   Clear
9:53 AM 80.1 °F 82.1 °F 66.0 °F 62% 29.87 in 10.0 mi WNW 5.8 mph - N/A   Clear
10:53 AM 81.0 °F 82.5 °F 64.0 °F 56% 29.86 in 10.0 mi SW 5.8 mph - N/A   Clear
11:53 AM 82.9 °F 85.0 °F 66.0 °F 56% 29.87 in 10.0 mi WNW 6.9 mph - N/A   Clear
12:53 PM 84.9 °F 87.6 °F 66.9 °F 55% 29.87 in 10.0 mi Variable 4.6 mph - N/A   Clear
1:53 PM 84.0 °F 86.5 °F 66.9 °F 56% 29.86 in 10.0 mi West 8.1 mph - N/A   Clear
2:53 PM 87.1 °F 89.9 °F 66.9 °F 51% 29.84 in 10.0 mi WSW 6.9 mph - N/A   Scattered Clouds
3:53 PM 87.1 °F 91.3 °F 69.1 °F 55% 29.82 in 10.0 mi West 8.1 mph - N/A   Partly Cloudy
4:53 PM 84.9 °F 87.6 °F 66.9 °F 55% 29.80 in 10.0 mi WSW 8.1 mph - N/A   Partly Cloudy
5:53 PM 84.0 °F 86.5 °F 66.9 °F 56% 29.79 in 10.0 mi WSW 4.6 mph - N/A   Partly Cloudy
6:22 PM 73.4 °F - 69.8 °F 88% 29.85 in 1.0 mi West 23.0 mph 28.8 mph 0.12 in Rain Light Rain
6:26 PM 71.6 °F - 69.8 °F 94% 29.86 in 0.2 mi West 17.3 mph 28.8 mph 0.33 in Fog , Rain Heavy Rain
6:30 PM 71.6 °F - 68.0 °F 88% 29.84 in 0.2 mi SSW 12.7 mph 28.8 mph 0.61 in Fog , Rain Heavy Rain
6:40 PM 71.6 °F - 68.0 °F 88% 29.84 in 1.0 mi South 5.8 mph - 0.73 in Rain Heavy Rain
6:46 PM 71.6 °F - 68.0 °F 88% 29.84 in 3.0 mi South 4.6 mph - 0.75 in Rain Light Rain
6:53 PM 72.0 °F - 68.0 °F 87% 29.83 in 7.0 mi SSE 4.6 mph - 0.75 in Rain Light Rain
7:53 PM 72.0 °F - 69.1 °F 91% 29.83 in 10.0 mi SSE 3.5 mph - 0.00 in   Scattered Clouds
8:53 PM 73.0 °F - 69.1 °F 87% 29.82 in 9.0 mi Calm Calm - 0.00 in Rain Light Rain
9:53 PM 73.0 °F - 69.1 °F 87% 29.84 in 9.0 mi Calm Calm - 0.00 in   Mostly Cloudy
10:53 PM 72.0 °F - 69.1 °F 91% 29.83 in 7.0 mi Calm Calm - N/A   Scattered Clouds
11:53 PM 71.1 °F - 69.1 °F 93% 29.83 in 3.0 mi Calm Calm - N/A   Scattered Clouds